Hlavní strana
METAR-TAF:

METAR-TAF

Letiště :

Madison, Indiana, Spojené státy americké

zeměpisná šířka: 38-45-36N, zeměpisná délka: 085-27-53W, výška: 250 m

Aktuální stav počasí

Zpráva byla vytvořena před 16 minutami, v 01:55 UTC
Bezvětří
Teplota 14°C
Vlhkost vzduchu 58%
Tlak 1021 hPa
Viditelnost: 16.1 km
Polojasno ve výšce 8500 ft
Zataženo ve výšce 9500 ft

METAR: KIMS 140155Z AUTO 00000KT 10SM SCT085 OVC095 14/06 A3015 RMK AO1

Čas: 22:11 (02:11 UTC)


TAF: chybějící

Stav a předpovědi počasí z více než 4 000 letišť (zprávy METAR a TAF).

Červené a žluté tečky na mapě představují dostupné meteorologické stanice.

Když kurzor umístíte na tečku, zobrazí se název stanice.

Pak kliknutím zobrazíte stav a předpověď počasí.

Chcete-li změnit mapu, kliknutím na zelené tlačítko se znaménkem +mapu přiblížíte, kliknutím na zelené tlačítko se znaménkem – mapu oddálíte a kliknutím na zelené šipky přejdete na sousední mapy.


METAR-TAF: